AEE785 LDDU-LGAV

Flight info

Callsign AEE785
Flight time N/A
Altitude 37000
Route MOKUN2V MOKUN DCT PETAK DCT PINDO UL607 XORKI XORKI1K
Aircraft A21N/M-SDE2E3FGHIRWXY/LB1

Departure

Time 2026-05-04 12:37
Airport Dubrovnik Ruđer Bošković Airport (LDDU)

Arrival

Time N/A
Airport Athens Eleftherios Venizelos International Airport (LGAV)
Time Latitude Longitude Altitude Speed Heading
2026-05-04 12:20 42.56089 18.26303 540 ft 0 kts 208°
2026-05-04 12:29 42.56102 18.26312 539 ft 3 kts 203°
2026-05-04 12:30 42.56121 18.26320 539 ft 3 kts 188°
2026-05-04 12:30 42.56140 18.26321 539 ft 3 kts 162°
2026-05-04 12:30 42.56154 18.26310 539 ft 2 kts 123°
2026-05-04 12:30 42.56156 18.26305 539 ft 0 kts 118°
2026-05-04 12:33 42.56146 18.26330 539 ft 8 kts 122°
2026-05-04 12:33 42.56115 18.26403 539 ft 9 kts 119°
2026-05-04 12:33 42.56102 18.26488 539 ft 11 kts 68°
2026-05-04 12:33 42.56138 18.26585 539 ft 12 kts 62°
2026-05-04 12:34 42.56176 18.26691 539 ft 13 kts 83°
2026-05-04 12:34 42.56137 18.26823 540 ft 18 kts 118°
2026-05-04 12:34 42.56041 18.27065 539 ft 33 kts 118°
2026-05-04 12:34 42.55932 18.27341 537 ft 34 kts 118°
2026-05-04 12:35 42.55821 18.27624 536 ft 35 kts 118°
2026-05-04 12:35 42.55705 18.27915 537 ft 36 kts 118°
2026-05-04 12:35 42.55623 18.28130 538 ft 13 kts 106°
2026-05-04 12:35 42.55608 18.28202 538 ft 4 kts 131°
2026-05-04 12:36 42.55591 18.28183 538 ft 5 kts 296°
2026-05-04 12:36 42.55620 18.28132 538 ft 14 kts 300°
2026-05-04 12:36 42.55772 18.27747 536 ft 83 kts 299°
2026-05-04 12:36 42.56157 18.26777 539 ft 144 kts 298°
2026-05-04 12:37 42.56689 18.25443 722 ft 169 kts 298°
2026-05-04 12:37 42.57236 18.24060 1432 ft 166 kts 296°
2026-05-04 12:37 42.57787 18.22630 1920 ft 180 kts 295°
2026-05-04 12:37 42.58422 18.21013 2344 ft 206 kts 295°
2026-05-04 12:38 42.59128 18.19226 2740 ft 227 kts 296°
2026-05-04 12:38 42.59919 18.17233 3127 ft 250 kts 297°
2026-05-04 12:38 42.60760 18.15105 3771 ft 260 kts 298°
2026-05-04 12:38 42.61623 18.12913 4556 ft 266 kts 299°
2026-05-04 12:39 42.62505 18.10686 5343 ft 270 kts 300°
2026-05-04 12:39 42.63401 18.08423 6144 ft 273 kts 299°
2026-05-04 12:39 42.64304 18.06135 6916 ft 276 kts 300°
2026-05-04 12:39 42.65216 18.03818 7646 ft 280 kts 300°
2026-05-04 12:40 42.66136 18.01471 8393 ft 283 kts 300°
2026-05-04 12:40 42.67070 17.99098 9140 ft 286 kts 300°
2026-05-04 12:40 42.68013 17.96702 9874 ft 290 kts 300°
2026-05-04 12:40 42.68974 17.94261 10439 ft 299 kts 300°
2026-05-04 12:41 42.69983 17.91700 10737 ft 317 kts 300°
2026-05-04 12:41 42.71052 17.88984 10991 ft 335 kts 300°
2026-05-04 12:41 42.72057 17.86027 11226 ft 355 kts 289°
2026-05-04 12:41 42.72449 17.82622 11449 ft 376 kts 271°
2026-05-04 12:42 42.72026 17.79044 11669 ft 395 kts 253°
2026-05-04 12:42 42.70761 17.75663 11902 ft 410 kts 234°
2026-05-04 12:42 42.68743 17.72891 12296 ft 416 kts 216°
2026-05-04 12:42 42.66188 17.71037 12781 ft 419 kts 199°
2026-05-04 12:43 42.63337 17.70280 13305 ft 420 kts 181°
2026-05-04 12:43 42.60435 17.70681 13808 ft 421 kts 164°
2026-05-04 12:43 42.57740 17.72205 14236 ft 421 kts 147°
2026-05-04 12:43 42.55489 17.74726 14661 ft 421 kts 130°
2026-05-04 12:44 42.53875 17.78022 15052 ft 421 kts 113°
2026-05-04 12:44 42.53049 17.81812 15513 ft 421 kts 96°
2026-05-04 12:44 42.53065 17.85765 16011 ft 420 kts 81°
2026-05-04 12:44 42.53521 17.89697 16517 ft 424 kts 81°
2026-05-04 12:45 42.53564 17.93716 17005 ft 431 kts 93°
2026-05-04 12:45 42.53095 17.97748 17501 ft 436 kts 99°
2026-05-04 12:45 42.52450 18.01782 17998 ft 440 kts 100°
2026-05-04 12:45 42.51777 18.05841 18467 ft 443 kts 100°
2026-05-04 12:46 42.51110 18.09927 18865 ft 446 kts 100°
2026-05-04 12:46 42.50456 18.13996 19252 ft 449 kts 100°
2026-05-04 12:46 42.49783 18.18198 19655 ft 452 kts 100°
2026-05-04 12:46 42.49126 18.22318 20039 ft 455 kts 99°
2026-05-04 12:47 42.48454 18.26520 20422 ft 458 kts 99°
2026-05-04 12:47 42.47776 18.30744 20799 ft 460 kts 100°
2026-05-04 12:47 42.47090 18.34989 21181 ft 463 kts 99°
2026-05-04 12:47 42.46399 18.39265 21629 ft 466 kts 99°
2026-05-04 12:48 42.45584 18.43540 22042 ft 472 kts 105°
2026-05-04 12:48 42.44253 18.47625 22396 ft 479 kts 117°
2026-05-04 12:48 42.42315 18.51328 22778 ft 487 kts 129°
2026-05-04 12:48 42.39889 18.54564 23156 ft 491 kts 135°
2026-05-04 12:49 42.37354 18.57677 23528 ft 494 kts 136°
2026-05-04 12:49 42.34807 18.60808 23888 ft 496 kts 135°
2026-05-04 12:49 42.32262 18.63967 24257 ft 496 kts 135°
2026-05-04 12:49 42.29719 18.67119 24645 ft 496 kts 135°
2026-05-04 12:50 42.27179 18.70273 25025 ft 497 kts 135°
2026-05-04 12:50 42.24633 18.73432 25389 ft 497 kts 135°
2026-05-04 12:50 42.22086 18.76592 25756 ft 498 kts 135°
2026-05-04 12:50 42.19535 18.79756 26136 ft 498 kts 135°
2026-05-04 12:51 42.16987 18.82926 26494 ft 499 kts 135°
2026-05-04 12:51 42.14434 18.86091 26866 ft 499 kts 135°
2026-05-04 12:51 42.11878 18.89256 27250 ft 499 kts 135°
2026-05-04 12:51 42.09322 18.92421 27628 ft 499 kts 135°
2026-05-04 12:52 42.06765 18.95585 27999 ft 499 kts 135°
2026-05-04 12:52 42.04205 18.98744 28357 ft 499 kts 136°
2026-05-04 12:52 42.01644 19.01902 28699 ft 500 kts 136°
2026-05-04 12:52 41.99075 19.05066 29001 ft 501 kts 136°
2026-05-04 12:53 41.96502 19.08230 29343 ft 502 kts 136°
2026-05-04 12:53 41.93924 19.11391 29698 ft 502 kts 136°
2026-05-04 12:53 41.91341 19.14554 30016 ft 503 kts 136°
2026-05-04 12:53 41.88751 19.17713 30304 ft 504 kts 136°
2026-05-04 12:54 41.86190 19.20837 30562 ft 504 kts 136°
2026-05-04 12:54 41.83563 19.24043 30844 ft 504 kts 136°
2026-05-04 12:54 41.80974 19.27199 31120 ft 503 kts 136°
2026-05-04 12:54 41.79261 19.29289 31300 ft 503 kts 136°
2026-05-04 12:55 41.75881 19.33531 31631 ft 503 kts 134°
2026-05-04 12:55 41.74177 19.35735 31778 ft 503 kts 134°
2026-05-04 12:55 41.71666 19.39001 32005 ft 504 kts 134°
2026-05-04 12:55 41.68334 19.43320 32320 ft 504 kts 134°
2026-05-04 12:56 41.65817 19.46582 32586 ft 504 kts 134°
2026-05-04 12:56 41.63304 19.49845 32836 ft 503 kts 134°
2026-05-04 12:56 41.61613 19.52045 32997 ft 503 kts 134°
2026-05-04 12:56 41.59105 19.55304 33237 ft 502 kts 134°
2026-05-04 12:57 41.56602 19.58551 33451 ft 502 kts 134°
2026-05-04 12:57 41.54100 19.61795 33677 ft 501 kts 134°
2026-05-04 12:57 41.51597 19.65033 33881 ft 501 kts 134°
2026-05-04 12:57 41.49092 19.68267 34041 ft 502 kts 134°
2026-05-04 12:58 41.46577 19.71506 34208 ft 502 kts 134°
2026-05-04 12:58 41.44063 19.74742 34371 ft 502 kts 134°
2026-05-04 12:58 41.41584 19.77926 34552 ft 501 kts 134°
2026-05-04 12:58 41.39076 19.81145 34764 ft 500 kts 134°
2026-05-04 12:59 41.36574 19.84355 34946 ft 499 kts 134°
2026-05-04 12:59 41.34076 19.87555 35126 ft 498 kts 134°
2026-05-04 12:59 41.31584 19.90745 35287 ft 497 kts 134°
2026-05-04 12:59 41.29095 19.93925 35441 ft 496 kts 134°
2026-05-04 13:00 41.26606 19.97098 35594 ft 495 kts 134°
2026-05-04 13:00 41.24126 20.00264 35738 ft 494 kts 134°
2026-05-04 13:00 41.21649 20.03422 35847 ft 494 kts 134°
2026-05-04 13:00 41.19165 20.06581 35952 ft 494 kts 134°
2026-05-04 13:01 41.16685 20.09733 36072 ft 494 kts 134°
2026-05-04 13:01 41.14202 20.12886 36207 ft 493 kts 134°
2026-05-04 13:01 41.11724 20.16031 36380 ft 492 kts 134°
2026-05-04 13:01 41.09250 20.19163 36505 ft 492 kts 134°
2026-05-04 13:02 41.06786 20.22278 36724 ft 484 kts 134°
2026-05-04 13:02 41.01979 20.28346 36439 ft 475 kts 134°
2026-05-04 13:02 40.99587 20.31362 36195 ft 475 kts 134°
2026-05-04 13:03 40.97194 20.34380 35949 ft 476 kts 134°
2026-05-04 13:03 40.94795 20.37404 35704 ft 477 kts 134°
2026-05-04 13:03 40.92383 20.40436 35459 ft 479 kts 134°
2026-05-04 13:03 40.89966 20.43473 35209 ft 480 kts 134°
2026-05-04 13:04 40.87545 20.46510 34975 ft 481 kts 134°
2026-05-04 13:04 40.85112 20.49558 34778 ft 483 kts 134°
2026-05-04 13:04 40.82670 20.52615 34538 ft 484 kts 134°
2026-05-04 13:04 40.80222 20.55676 34306 ft 485 kts 134°
2026-05-04 13:05 40.77769 20.58744 34066 ft 487 kts 134°
2026-05-04 13:05 40.75306 20.61819 33798 ft 488 kts 134°
2026-05-04 13:05 40.72838 20.64894 33533 ft 489 kts 134°
2026-05-04 13:05 40.70358 20.67980 33262 ft 491 kts 134°
2026-05-04 13:06 40.67874 20.71072 33083 ft 492 kts 134°
2026-05-04 13:06 40.62887 20.77264 33084 ft 493 kts 134°
2026-05-04 13:07 40.57891 20.83454 33129 ft 493 kts 134°
2026-05-04 13:07 40.52902 20.89625 33113 ft 492 kts 134°
2026-05-04 13:08 40.47930 20.95735 33113 ft 493 kts 135°
2026-05-04 13:08 40.42776 21.01708 33101 ft 496 kts 136°
2026-05-04 13:09 40.37596 21.07676 33106 ft 496 kts 136°
2026-05-04 13:09 40.32408 21.13643 33106 ft 496 kts 136°
2026-05-04 13:10 40.27242 21.19579 33115 ft 493 kts 136°
2026-05-04 13:10 40.22080 21.25493 33111 ft 493 kts 136°
2026-05-04 13:11 40.16903 21.31408 33096 ft 495 kts 136°
2026-05-04 13:11 40.11711 21.37331 33105 ft 496 kts 136°
2026-05-04 13:12 40.06516 21.43243 33109 ft 496 kts 136°
2026-05-04 13:12 40.01315 21.49152 33109 ft 496 kts 136°
2026-05-04 13:13 39.96109 21.55053 33114 ft 496 kts 136°
2026-05-04 13:13 39.90905 21.60940 33107 ft 497 kts 136°
2026-05-04 13:14 39.85676 21.66843 33109 ft 498 kts 137°
2026-05-04 13:14 39.80437 21.72743 33109 ft 498 kts 137°
2026-05-04 13:15 39.75199 21.78629 33110 ft 498 kts 137°
2026-05-04 13:15 39.69967 21.84497 33125 ft 497 kts 137°
2026-05-04 13:16 39.64729 21.90358 33109 ft 498 kts 137°
2026-05-04 13:16 39.59463 21.96240 33109 ft 500 kts 137°
2026-05-04 13:17 39.54183 22.02121 33105 ft 500 kts 137°
2026-05-04 13:17 39.48903 22.07994 33107 ft 500 kts 137°
2026-05-04 13:18 39.43623 22.13856 33138 ft 500 kts 137°
2026-05-04 13:18 39.38362 22.19684 33111 ft 498 kts 137°
2026-05-04 13:19 39.33091 22.25508 33113 ft 499 kts 137°
2026-05-04 13:19 39.27810 22.31334 33113 ft 499 kts 137°
2026-05-04 13:20 39.22528 22.37147 33121 ft 499 kts 137°
2026-05-04 13:20 39.17247 22.42945 33119 ft 499 kts 137°
2026-05-04 13:21 39.11966 22.48733 33150 ft 497 kts 137°
2026-05-04 13:21 39.06714 22.54481 33134 ft 501 kts 137°
2026-05-04 13:22 39.01405 22.60278 33127 ft 501 kts 137°
2026-05-04 13:22 38.96090 22.66069 33127 ft 500 kts 137°
2026-05-04 13:23 38.90778 22.71843 33126 ft 500 kts 137°
2026-05-04 13:23 38.85458 22.77613 33127 ft 501 kts 138°
2026-05-04 13:24 38.80140 22.83377 33138 ft 500 kts 138°
2026-05-04 13:24 38.74816 22.89131 33134 ft 501 kts 138°
2026-05-04 13:25 38.66816 22.97755 33132 ft 501 kts 138°
2026-05-04 13:25 38.61481 23.03489 33133 ft 501 kts 138°
2026-05-04 13:26 38.56145 23.09217 33130 ft 501 kts 138°
2026-05-04 13:26 38.50783 23.14960 33146 ft 503 kts 138°
2026-05-04 13:27 38.45415 23.20696 33140 ft 504 kts 138°
2026-05-04 13:27 38.40041 23.26429 33136 ft 503 kts 138°
2026-05-04 13:28 38.34670 23.32149 33134 ft 503 kts 138°
2026-05-04 13:28 38.29293 23.37860 33133 ft 503 kts 138°
2026-05-04 13:29 38.23913 23.43564 33172 ft 503 kts 139°
2026-05-04 13:29 38.18572 23.49217 33142 ft 499 kts 139°
2026-05-04 13:30 38.13570 23.55307 33138 ft 498 kts 132°
2026-05-04 13:30 38.08744 23.61622 33139 ft 498 kts 132°
2026-05-04 13:31 38.03908 23.67912 33113 ft 498 kts 132°
2026-05-04 13:31 37.99070 23.74186 33117 ft 498 kts 132°
2026-05-04 13:32 37.94232 23.80446 33150 ft 495 kts 132°
2026-05-04 13:32 37.89405 23.86683 33141 ft 496 kts 132°
2026-05-04 13:33 37.84573 23.92911 33142 ft 496 kts 132°
2026-05-04 13:33 37.79770 23.99093 33141 ft 496 kts 132°
2026-05-04 13:34 37.74935 24.05302 33139 ft 495 kts 133°
2026-05-04 13:34 37.70127 24.11463 33148 ft 488 kts 133°
2026-05-04 13:35 37.62322 24.19811 33127 ft 497 kts 157°
2026-05-04 13:35 37.59034 24.21057 33129 ft 493 kts 174°
2026-05-04 13:36 37.55641 24.21178 33136 ft 485 kts 191°
2026-05-04 13:36 37.49143 24.19279 33145 ft 480 kts 198°
2026-05-04 13:37 37.42611 24.17434 33131 ft 483 kts 198°
2026-05-04 13:37 37.36037 24.15653 33132 ft 484 kts 197°
2026-05-04 13:38 37.29452 24.13880 33127 ft 484 kts 197°
2026-05-04 13:38 37.22876 24.12120 33112 ft 483 kts 198°
2026-05-04 13:39 37.16298 24.10402 33125 ft 483 kts 197°
2026-05-04 13:39 37.09717 24.08694 33126 ft 483 kts 197°
2026-05-04 13:40 37.03135 24.06990 33097 ft 482 kts 198°
2026-05-04 13:40 36.96548 24.05395 33111 ft 483 kts 197°
2026-05-04 13:41 36.89932 24.03843 33120 ft 483 kts 197°
2026-05-04 13:41 36.83322 24.02297 33125 ft 484 kts 197°
2026-05-04 13:42 36.73372 24.00061 33127 ft 485 kts 197°
2026-05-04 13:42 36.67854 23.98842 33128 ft 485 kts 197°
2026-05-04 13:43 36.61210 23.97378 33107 ft 485 kts 198°
2026-05-04 13:43 36.54555 23.95953 33127 ft 486 kts 197°
2026-05-04 13:44 36.47895 23.94547 33129 ft 486 kts 197°
2026-05-04 13:44 36.41228 23.93145 33133 ft 486 kts 197°
2026-05-04 13:45 36.34567 23.91762 33128 ft 485 kts 197°
2026-05-04 13:45 36.27909 23.90394 33135 ft 485 kts 197°
2026-05-04 13:46 36.21250 23.89031 33137 ft 485 kts 197°
2026-05-04 13:46 36.14604 23.87680 33123 ft 482 kts 197°
2026-05-04 13:47 36.07972 23.86353 33135 ft 483 kts 197°
2026-05-04 13:47 36.01342 23.85031 33134 ft 483 kts 197°
2026-05-04 13:48 35.94710 23.83710 33142 ft 483 kts 197°
2026-05-04 13:48 35.88080 23.82392 33143 ft 483 kts 197°
2026-05-04 13:49 35.81493 23.81085 33145 ft 483 kts 197°
2026-05-04 13:49 35.74820 23.79763 33145 ft 483 kts 197°
2026-05-04 13:50 35.68194 23.78479 33127 ft 482 kts 197°
2026-05-04 13:50 35.61570 23.77215 33137 ft 482 kts 197°
2026-05-04 13:51 35.54984 23.75958 33146 ft 482 kts 197°
2026-05-04 13:51 35.48350 23.74714 33108 ft 481 kts 197°
2026-05-04 13:52 35.38409 23.72888 33141 ft 482 kts 197°
2026-05-04 13:53 35.31774 23.71667 33153 ft 482 kts 197°
2026-05-04 13:53 35.25162 23.70446 33121 ft 478 kts 197°
2026-05-04 13:54 35.15303 23.68612 33142 ft 478 kts 197°
2026-05-04 13:55 35.05441 23.66814 33127 ft 476 kts 197°
2026-05-04 13:55 34.95625 23.65004 33144 ft 476 kts 197°
2026-05-04 13:56 34.89081 23.63794 33150 ft 476 kts 197°
2026-05-04 13:57 34.79287 23.61982 33146 ft 473 kts 197°
2026-05-04 13:58 34.66282 23.59565 33161 ft 473 kts 197°
2026-05-04 13:58 34.56549 23.57748 33155 ft 470 kts 197°
2026-05-04 13:59 34.50080 23.56528 33162 ft 470 kts 197°
2026-05-04 14:00 34.40376 23.54701 33165 ft 471 kts 197°
2026-05-04 14:00 34.30723 23.52855 33165 ft 467 kts 197°
2026-05-04 14:01 34.24311 23.51615 33173 ft 467 kts 197°
2026-05-04 14:02 34.14693 23.49753 33151 ft 466 kts 197°
2026-05-04 14:02 34.08322 23.48501 33169 ft 464 kts 197°
2026-05-04 14:03 34.01954 23.47244 33173 ft 464 kts 197°
2026-05-04 14:03 33.95627 23.45996 33174 ft 464 kts 197°
2026-05-04 14:04 33.86130 23.44102 33174 ft 459 kts 197°
2026-05-04 14:04 33.79783 23.42817 33175 ft 459 kts 197°
2026-05-04 14:05 33.70326 23.40884 33178 ft 460 kts 197°
2026-05-04 14:06 33.64058 23.39601 33175 ft 460 kts 197°
2026-05-04 14:06 33.57752 23.38312 33180 ft 460 kts 197°
2026-05-04 14:07 33.51440 23.37024 33181 ft 460 kts 197°
2026-05-04 14:07 33.45128 23.35736 33154 ft 459 kts 197°
2026-05-04 14:08 33.38871 23.34426 33178 ft 456 kts 197°
2026-05-04 14:08 33.32624 23.33103 33180 ft 456 kts 197°
2026-05-04 14:09 33.23248 23.31119 33185 ft 456 kts 197°
2026-05-04 14:10 33.13902 23.29108 33183 ft 455 kts 197°
2026-05-04 14:10 33.07676 23.27760 33186 ft 455 kts 197°
2026-05-04 14:11 33.01443 23.26413 33187 ft 455 kts 197°
2026-05-04 14:11 32.92125 23.24399 33182 ft 453 kts 197°
2026-05-04 14:12 32.85920 23.23060 33189 ft 453 kts 197°
2026-05-04 14:13 32.76650 23.21061 33189 ft 453 kts 197°
2026-05-04 14:13 32.70444 23.19760 33178 ft 453 kts 197°
2026-05-04 14:14 32.64229 23.18498 33186 ft 453 kts 197°